Voltar ao catálogo

DELTA 1 DEB

AtivoLEO
NORAD 10188·DEBRIS·🇺🇸 United States

Lançado Jul 14, 1977 de Cape Canaveral Space Force Station

Loading…

Próximas Passagens (próximas 24 horas)

TLE

AtualizadoSource: Space-Track

Época: Sep 14, 2026, 12:19 UTC

1 10188U 77065S   26257.51384111  .00001105  00000-0  24583-3 0  9991
2 10188  29.0653 307.8772 0651184  14.3562 347.4604 13.69143910403872

Acompanhe DELTA 1 DEB em tempo real com AllMySat

Download on the App Store